TimeEST,TemperatureF,Dew PointF,Humidity,Sea Level PressureIn,VisibilityMPH,Wind Direction,Wind SpeedMPH,Gust SpeedMPH,PrecipitationIn,Events,Conditions,WindDirDegrees,DateUTC
12:15 AM,39.2,33.8,81,30.39,10.0,South,4.6,-,N/A,,Clear,190,2012-11-30 05:15:00
12:35 AM,37.4,33.8,87,30.38,10.0,South,3.5,-,N/A,,Clear,190,2012-11-30 05:35:00
12:55 AM,35.6,32.0,87,30.37,10.0,South,4.6,-,N/A,,Clear,190,2012-11-30 05:55:00
1:15 AM,37.4,33.8,87,30.38,10.0,South,5.8,-,N/A,,Clear,190,2012-11-30 06:15:00
1:35 AM,39.2,35.6,87,30.37,10.0,SSW,5.8,-,N/A,,Clear,200,2012-11-30 06:35:00
1:55 AM,37.4,33.8,87,30.38,10.0,SSW,4.6,-,N/A,,Clear,200,2012-11-30 06:55:00
2:15 AM,37.4,33.8,87,30.38,10.0,SSW,5.8,-,N/A,,Clear,200,2012-11-30 07:15:00
2:35 AM,39.2,33.8,81,30.37,10.0,SSW,5.8,-,N/A,,Clear,200,2012-11-30 07:35:00
2:55 AM,39.2,33.8,81,30.37,10.0,SSW,4.6,-,N/A,,Clear,200,2012-11-30 07:55:00
3:15 AM,39.2,33.8,81,30.37,10.0,SSW,4.6,-,N/A,,Clear,200,2012-11-30 08:15:00
3:35 AM,37.4,33.8,87,30.37,10.0,SSW,4.6,-,N/A,,Clear,200,2012-11-30 08:35:00
3:55 AM,37.4,33.8,87,30.37,10.0,SSW,4.6,-,N/A,,Clear,200,2012-11-30 08:55:00
4:15 AM,35.6,33.8,93,30.36,7.0,SSW,3.5,-,N/A,,Clear,200,2012-11-30 09:15:00
4:35 AM,33.8,32.0,93,30.36,7.0,SSW,3.5,-,N/A,,Clear,200,2012-11-30 09:35:00
4:55 AM,33.8,32.0,93,30.37,7.0,SSW,4.6,-,N/A,,Clear,200,2012-11-30 09:55:00
5:17 AM,33.8,32.0,93,30.37,4.0,SSW,3.5,-,N/A,,Clear,200,2012-11-30 10:17:00
5:35 AM,33.8,30.2,87,30.37,3.0,South,3.5,-,N/A,,Clear,190,2012-11-30 10:35:00
5:58 AM,33.8,32.0,93,30.37,4.0,South,4.6,-,N/A,,Clear,190,2012-11-30 10:58:00
6:15 AM,33.8,32.0,93,30.37,7.0,South,4.6,-,N/A,,Clear,180,2012-11-30 11:15:00
6:35 AM,33.8,30.2,87,30.37,5.0,South,5.8,-,N/A,,Clear,180,2012-11-30 11:35:00
6:56 AM,33.8,32.0,93,30.38,7.0,South,4.6,-,N/A,,Clear,180,2012-11-30 11:56:00
7:16 AM,33.8,32.0,93,30.38,7.0,South,5.8,-,N/A,,Clear,190,2012-11-30 12:16:00
7:35 AM,37.4,35.6,93,30.38,7.0,South,5.8,-,N/A,,Clear,190,2012-11-30 12:35:00
7:55 AM,37.4,33.8,87,30.38,7.0,South,4.6,-,N/A,,Clear,190,2012-11-30 12:55:00
8:15 AM,39.2,35.6,87,30.39,7.0,South,6.9,-,N/A,,Clear,190,2012-11-30 13:15:00
8:35 AM,42.8,37.4,81,30.39,10.0,South,4.6,-,N/A,,Clear,180,2012-11-30 13:35:00
8:55 AM,44.6,37.4,76,30.40,10.0,South,6.9,-,N/A,,Clear,190,2012-11-30 13:55:00
9:15 AM,46.4,37.4,71,30.40,10.0,South,8.1,-,N/A,,Clear,190,2012-11-30 14:15:00
9:35 AM,48.2,39.2,71,30.39,10.0,SSW,3.5,-,N/A,,Clear,200,2012-11-30 14:35:00
9:55 AM,48.2,39.2,71,30.39,10.0,South,4.6,-,N/A,,Clear,180,2012-11-30 14:55:00
10:15 AM,51.8,37.4,58,30.39,10.0,SSW,6.9,-,N/A,,Clear,210,2012-11-30 15:15:00
10:35 AM,53.6,37.4,54,30.39,10.0,SW,8.1,-,N/A,,Clear,220,2012-11-30 15:35:00
10:55 AM,53.6,37.4,54,30.38,10.0,SSW,8.1,-,N/A,,Clear,200,2012-11-30 15:55:00
11:15 AM,55.4,37.4,51,30.37,10.0,SW,10.4,-,N/A,,Clear,230,2012-11-30 16:15:00
11:35 AM,55.4,35.6,47,30.36,10.0,SW,11.5,-,N/A,,Clear,220,2012-11-30 16:35:00
11:56 AM,57.2,35.6,44,30.36,10.0,SW,10.4,-,N/A,,Clear,220,2012-11-30 16:56:00
12:15 PM,57.2,33.8,41,30.34,10.0,SW,9.2,16.1,N/A,,Clear,230,2012-11-30 17:15:00
12:35 PM,57.2,33.8,41,30.34,10.0,SW,9.2,-,N/A,,Clear,230,2012-11-30 17:35:00
12:56 PM,57.2,33.8,41,30.33,10.0,SSW,9.2,-,N/A,,Clear,210,2012-11-30 17:56:00
1:15 PM,57.2,33.8,41,30.32,10.0,SW,6.9,-,N/A,,Clear,230,2012-11-30 18:15:00
1:35 PM,59.0,33.8,39,30.31,10.0,WSW,5.8,-,N/A,,Clear,240,2012-11-30 18:35:00
1:55 PM,59.0,33.8,39,30.31,10.0,SW,6.9,-,N/A,,Clear,230,2012-11-30 18:55:00
2:15 PM,57.2,35.6,44,30.31,10.0,South,5.8,-,N/A,,Clear,180,2012-11-30 19:15:00
2:35 PM,57.2,37.4,48,30.31,10.0,South,5.8,-,N/A,,Clear,170,2012-11-30 19:35:00
2:55 PM,57.2,37.4,48,30.31,10.0,South,6.9,-,N/A,,Clear,180,2012-11-30 19:55:00
3:15 PM,55.4,37.4,51,30.31,10.0,SSW,5.8,-,N/A,,Clear,200,2012-11-30 20:15:00
3:36 PM,55.4,37.4,51,30.31,10.0,South,5.8,-,N/A,,Clear,180,2012-11-30 20:36:00
3:57 PM,55.4,39.2,54,30.32,10.0,SSE,5.8,-,N/A,,Clear,150,2012-11-30 20:57:00
4:15 PM,53.6,41.0,62,30.32,10.0,South,3.5,-,N/A,,Clear,170,2012-11-30 21:15:00
4:35 PM,51.8,41.0,67,30.32,10.0,SSE,4.6,-,N/A,,Clear,150,2012-11-30 21:35:00
5:15 PM,48.2,41.0,76,30.33,10.0,SSE,3.5,-,N/A,,Clear,150,2012-11-30 22:15:00
5:35 PM,48.2,42.8,82,30.33,10.0,SSE,4.6,-,N/A,,Clear,160,2012-11-30 22:35:00
5:56 PM,48.2,42.8,82,30.33,10.0,SSE,4.6,-,N/A,,Clear,160,2012-11-30 22:56:00
6:15 PM,48.2,42.8,82,30.33,10.0,SSE,5.8,-,N/A,,Clear,160,2012-11-30 23:15:00
6:35 PM,48.2,42.8,82,30.33,10.0,Calm,Calm,-,N/A,,Clear,0,2012-11-30 23:35:00
6:56 PM,46.4,41.0,81,30.34,10.0,Calm,Calm,-,N/A,,Clear,0,2012-11-30 23:56:00
7:15 PM,44.6,42.8,93,30.34,10.0,SSE,5.8,-,N/A,,Clear,160,2012-12-01 00:15:00
7:35 PM,48.2,42.8,82,30.34,10.0,South,4.6,-,N/A,,Clear,170,2012-12-01 00:35:00
8:15 PM,48.2,42.8,82,30.35,10.0,South,5.8,-,N/A,,Clear,170,2012-12-01 01:15:00
8:35 PM,48.2,42.8,82,30.35,10.0,SSE,4.6,-,N/A,,Clear,160,2012-12-01 01:35:00
8:56 PM,48.2,42.8,82,30.35,10.0,South,5.8,-,N/A,,Clear,170,2012-12-01 01:56:00
9:15 PM,48.2,42.8,82,30.35,10.0,South,4.6,-,N/A,,Clear,170,2012-12-01 02:15:00
9:35 PM,48.2,42.8,82,30.35,10.0,South,6.9,-,N/A,,Clear,180,2012-12-01 02:35:00
10:15 PM,48.2,42.8,82,30.35,10.0,South,4.6,-,N/A,,Clear,170,2012-12-01 03:15:00
10:35 PM,48.2,42.8,82,30.35,10.0,South,4.6,-,N/A,,Clear,180,2012-12-01 03:35:00
11:15 PM,42.8,39.2,87,30.35,7.0,South,4.6,-,N/A,,Clear,170,2012-12-01 04:15:00
11:35 PM,44.6,41.0,87,30.35,10.0,South,5.8,-,N/A,,Clear,170,2012-12-01 04:35:00